Torna al catalogo

SL-12 DEB

LostHEO
NORAD 41648·DEBRIS·🇷🇺 Russia

Lanciato Dec 25, 2008 da Baikonur Cosmodrome

Loading…

Prossimi Passaggi (prossime 24 ore)

TLE

ObsoletoSource: Space-Track

Epoca: Sep 12, 2016, 07:53 UTC

1 41648U 08067U   16256.32863924 -.00004794  00000-0 -30016+0 0  9996
2 41648  64.8281 353.6398 5416086  72.9197 337.6300  4.13243737  3757

Traccia SL-12 DEB in tempo reale con AllMySat

Download on the App Store